INTELSAT 35E (IS-35E)

Last updated on Tue Sep 22 2026 00:03:14 GMT+0000 (Coordinated Universal Time)

1 42818U 17041A 26264.48222398 .00000000 00000+0 00000+0 0 9992 2 42818 0.0235 163.8904 0002220 25.4053 310.1655 1.00268989 33786
UTC large
Height (km)
Speed (km/s)
/
Latitude / Longitude
Inclination (degrees)
Orbital Period (minutes)
Azimuth
Elevation
Range (km)
Doppler Factor

Next 0 passes for location: London (51.5072 / 0.1276)

No passes found over London.
INTELSAT 35E (IS-35E)